Owen Roberts, Cayman Islands

4:22 AM EST on December 18, 2017 (GMT -0500)
Roberts International

Weather History for MWCR - July, 2013

Change the Weather History Date:

Tuesday, July 23, 2013

  Actual Average Record
Temperature  
Mean Temperature 86 °F -  
Max Temperature 89 °F 87 °F 91 °F (2003)
Min Temperature 82 °F 79 °F 73 °F (2016)
Cooling Degree Days 20    
Growing Degree Days 36 (Base 50)    
Moisture  
Dew Point 79 °F    
Average Humidity 81    
Maximum Humidity 89    
Minimum Humidity 74    
Precipitation  
Precipitation 0.00 in - - ()
Sea Level Pressure  
Sea Level Pressure 30.00 in    
Wind  
Wind Speed 9 mph ()    
Max Wind Speed 13 mph    
Max Gust Speed -    
Visibility 6.2 miles    
Events Rain    
Averages and records for this station are not official NWS values.
T = Trace of Precipitation, MM = Missing Value Source: Averaged Metar Reports

Daily Weather History Graph

Daily Weather History Graph

Search for Another Location

Airport or City:

Trip Planner

Search our weather history database for the weather conditions in past years. The results will help you decide how hot, cold, wet, or windy it might be!

Date:

Astronomy

Jul. 23, 2013 Rise Set
Actual Time 5:58 AM EST 7:04 PM EST
Civil Twilight 5:35 AM EST 7:28 PM EST
Nautical Twilight 5:07 AM EST 7:56 PM EST
Astronomical Twilight 4:38 AM EST 8:25 PM EST
Moon 7:53 PM EST (7/23) 6:49 AM EST (7/23)
Length of Visible Light 13h 53m
Length of Day
13h 05m
Full, 99% of the Moon is Illuminated
Jul 23
Full
Jul 29
Last Quarter
Aug 6
New
Aug 14
First Quarter
Aug 20
Full

Hourly Weather History & Observations

Time (EST) Temp. Heat Index Dew Point Humidity Pressure Visibility Wind Dir Wind Speed Gust Speed Precip Events Conditions
6:00 AM 82.4 °F 92.4 °F 78.8 °F 89% 30.01 in 6.2 mi East 10.4 mph - N/A   Scattered Clouds
7:00 AM 83 °F - 78 °F 80% 30.03 in 6 mi ENE 8.1 mph - -  
7:00 AM 82.4 °F 90.9 °F 77.0 °F 84% 30.01 in 6.2 mi ENE 8.1 mph - N/A   Partly Cloudy
8:00 AM 84.2 °F 96.1 °F 78.8 °F 84% 30.01 in 6.2 mi ENE 11.5 mph - N/A   Partly Cloudy
9:00 AM 86.0 °F 96.9 °F 77.0 °F 74% 30.04 in 6.2 mi ENE 11.5 mph - N/A   Scattered Clouds
10:00 AM 87.8 °F 102.5 °F 78.8 °F 75% 30.04 in 6.2 mi ENE 11.5 mph - N/A   Partly Cloudy
11:00 AM 86.0 °F 99.3 °F 78.8 °F 79% 30.04 in 6.2 mi NE 12.7 mph - N/A   Scattered Clouds
12:00 PM 87.8 °F 102.5 °F 78.8 °F 75% 30.04 in 6.2 mi ENE 11.5 mph - N/A   Scattered Clouds
1:00 PM 86 °F - 81 °F 80% 30.03 in 6 mi ENE 12.7 mph - - Rain Light Rain Showers
1:00 PM 86.0 °F 101.9 °F 80.6 °F 84% 30.01 in 6.2 mi ENE 12.7 mph - N/A Rain Light Rain Showers
2:00 PM 87.8 °F 108.2 °F 82.4 °F 84% 30.01 in 6.2 mi NE 12.7 mph - N/A   Partly Cloudy
3:00 PM 87.8 °F 104.9 °F 80.6 °F 79% 29.98 in 6.2 mi NE 12.7 mph - N/A   Partly Cloudy
4:00 PM 87.8 °F 102.5 °F 78.8 °F 75% 29.95 in 6.2 mi ENE 12.7 mph - N/A   Partly Cloudy
5:00 PM 86.0 °F 101.9 °F 80.6 °F 84% 29.95 in 6.2 mi ENE 12.7 mph - N/A   Partly Cloudy
6:00 PM 87.8 °F 104.9 °F 80.6 °F 79% 29.95 in 6.2 mi ENE 10.4 mph - N/A   Partly Cloudy
7:00 PM 86 °F - 81 °F 80% 29.98 in 6 mi East 5.8 mph - -   Partly Cloudy
7:00 PM 86.0 °F 101.9 °F 80.6 °F 84% 29.98 in 6.2 mi East 5.8 mph - N/A   Scattered Clouds
8:00 PM 84.2 °F 96.1 °F 78.8 °F 84% 29.98 in 6.2 mi East 4.6 mph - N/A   Partly Cloudy
9:00 PM 84.2 °F 96.1 °F 78.8 °F 84% 30.01 in 6.2 mi East 3.5 mph - N/A   Partly Cloudy
10:00 PM 84.2 °F 96.1 °F 78.8 °F 84% 30.01 in 6.2 mi East 4.6 mph - N/A   Partly Cloudy